Find Starlink 34788

NORAD ID: 65056 Int'l Des: 2025-165 Owner: SPXS Country: US Constellation: starlink operational
LEOCIRCULARRETROGRADESSO

Current View

Loading 3D Globe...

About Starlink 34788

Description loading...

Upcoming Passes

Passes for default location (London). Set your location on the main map for personalized predictions.

Altitude History

Loading altitude history...

Two-Line Element Set

1 65056U 25165A 26145.20577002 .00004168 00000-0 29275-3 0 9999
2 65056 97.4492 222.2759 0000929 130.2900 229.8408 15.05651552 46304
Epoch: May 25, 2026 • Age: 28 hours

Current Status

Altitude 555.3 km
Velocity 7.59 km/s
Sub-Earth Point 43.19°N, 36.61°E
Launch Date Jul 31, 2025
Age 0.8 years
Type internet

Technical Details

Classification Payload
Mass 575.00 kg
Dry Mass 530.00 kg
Total Mass 575.00 kg
Length 0.30 m
Diameter 4.10 m
Span 29.00 m
Shape Box + pan
Manufacturer SPXS
Bus Type Starlink V2MO
Phase Status In Orbit
Owner/State SPXS/US

Most Searched